Kineis-1E

operational
NORAD ID: 60083 Int'l Des: 2024-114 Owner: KINEIS Country: F
LEOCIRCULARRETROGRADESSO

Kineis-1Eについて

説明を読み込み中...

リアルタイム位置

3D地球を読み込み中...

次回通過

高度履歴

Altitude vs Time

uPlot chart will show altitude changes over time

軌道要素

1 60083U 24114E 26062.19742073 .00001328 00000-0 18081-3 0 9993
2 60083 97.9935 86.7631 0002475 95.2504 264.8990 14.80405578 91702
Epoch: Mar 3, 2026 • Age: 25 hours

現在のステータス

高度 657.9 km
速度 7.53 km/s
衛星直下点 -80.60°S, 27.32°E
打ち上げ日 Jun 20, 2024
運用期間 1.7 years
タイプ other

技術仕様

分類 Payload
質量 28.00 kg
乾燥質量 28.00 kg
総質量 28.00 kg
長さ 0.40 m
直径 0.20 m
スパン 1.60 m
形状 Box+ 2 pan + ant
製造者 KINEIS
バスタイプ Cubesat 16U
フェーズステータス In Orbit
所有者/国 KINEIS/F

大規模コンステレーション

Loading constellations...